DAL2560 KMCO-KDTW

Flight info

Callsign DAL2560
Flight time 2h 12m
Altitude 36000
Route JEEMY4 PAINN SHRKS Q77 TEUFL/N0455F350 Q77 WIGVO IRQ BURGG HNN SUBWY CRAKN2
Aircraft A320/M-SDE3FGHIRWY/LB1

Departure

Time 2026-04-26 14:56
Airport Orlando International Airport (KMCO)

Arrival

Time 2026-04-26 17:09
Airport Detroit Metropolitan Wayne County Airport (KDTW)
Time Latitude Longitude Altitude Speed Heading
2026-04-26 14:18 28.42612 -81.30020 95 ft 0 kts 241°
2026-04-26 14:47 28.42613 -81.30017 96 ft 3 kts 241°
2026-04-26 14:47 28.42626 -81.29991 95 ft 4 kts 243°
2026-04-26 14:47 28.42638 -81.29963 96 ft 4 kts 244°
2026-04-26 14:47 28.42650 -81.29935 94 ft 4 kts 244°
2026-04-26 14:48 28.42662 -81.29908 97 ft 4 kts 238°
2026-04-26 14:48 28.42678 -81.29886 94 ft 4 kts 203°
2026-04-26 14:48 28.42686 -81.29883 94 ft 0 kts 180°
2026-04-26 14:51 28.42683 -81.29883 94 ft 3 kts 180°
2026-04-26 14:52 28.42637 -81.29883 95 ft 11 kts 180°
2026-04-26 14:52 28.42595 -81.29839 96 ft 8 kts 98°
2026-04-26 14:52 28.42595 -81.29780 95 ft 7 kts 87°
2026-04-26 14:52 28.42597 -81.29731 95 ft 6 kts 87°
2026-04-26 14:53 28.42610 -81.29707 96 ft 5 kts 12°
2026-04-26 14:53 28.42682 -81.29703 96 ft 16 kts 359°
2026-04-26 14:53 28.42803 -81.29704 95 ft 18 kts 359°
2026-04-26 14:53 28.42929 -81.29706 96 ft 19 kts 359°
2026-04-26 14:54 28.43063 -81.29710 97 ft 20 kts 358°
2026-04-26 14:54 28.43207 -81.29709 96 ft 21 kts
2026-04-26 14:54 28.43351 -81.29709 98 ft 17 kts
2026-04-26 14:54 28.43451 -81.29710 98 ft 13 kts 358°
2026-04-26 14:55 28.43533 -81.29708 97 ft 11 kts 21°
2026-04-26 14:55 28.43553 -81.29649 96 ft 7 kts 91°
2026-04-26 14:55 28.43539 -81.29604 97 ft 10 kts 139°
2026-04-26 14:55 28.43358 -81.29584 98 ft 52 kts 179°
2026-04-26 14:56 28.42755 -81.29579 96 ft 118 kts 179°
2026-04-26 14:56 28.41741 -81.29573 143 ft 164 kts 181°
2026-04-26 14:56 28.40595 -81.29547 771 ft 164 kts 180°
2026-04-26 14:56 28.39458 -81.29484 1426 ft 165 kts 178°
2026-04-26 14:57 28.38314 -81.29267 1919 ft 175 kts 161°
2026-04-26 14:57 28.37205 -81.28541 2194 ft 198 kts 147°
2026-04-26 14:57 28.36004 -81.27605 2501 ft 219 kts 146°
2026-04-26 14:57 28.34951 -81.26226 2817 ft 247 kts 115°
2026-04-26 14:58 28.34687 -81.24233 3265 ft 269 kts 80°
2026-04-26 14:58 28.35528 -81.22321 3986 ft 278 kts 45°
2026-04-26 14:58 28.37181 -81.21253 4795 ft 280 kts 10°
2026-04-26 14:58 28.39108 -81.21344 5613 ft 279 kts 343°
2026-04-26 14:59 28.40970 -81.21993 6452 ft 281 kts 340°
2026-04-26 14:59 28.42860 -81.22648 7294 ft 285 kts 341°
2026-04-26 14:59 28.44770 -81.23295 8115 ft 288 kts 341°
2026-04-26 14:59 28.46046 -81.23732 8613 ft 291 kts 341°
2026-04-26 15:00 28.48660 -81.24640 9600 ft 295 kts 340°
2026-04-26 15:00 28.50612 -81.25325 10310 ft 301 kts 340°
2026-04-26 15:00 28.52684 -81.26060 10551 ft 324 kts 340°
2026-04-26 15:00 28.54913 -81.26856 10770 ft 345 kts 341°
2026-04-26 15:01 28.57243 -81.27688 11328 ft 353 kts 341°
2026-04-26 15:01 28.59605 -81.28530 12034 ft 357 kts 341°
2026-04-26 15:01 28.61987 -81.29377 12747 ft 359 kts 341°
2026-04-26 15:01 28.64350 -81.30218 13458 ft 362 kts 341°
2026-04-26 15:02 28.66758 -81.31077 14156 ft 364 kts 341°
2026-04-26 15:02 28.69181 -81.31941 14823 ft 366 kts 340°
2026-04-26 15:02 28.71619 -81.32815 15485 ft 368 kts 340°
2026-04-26 15:02 28.74072 -81.33695 16133 ft 370 kts 340°
2026-04-26 15:03 28.76539 -81.34578 16762 ft 372 kts 340°
2026-04-26 15:03 28.79014 -81.35464 17373 ft 374 kts 340°
2026-04-26 15:03 28.81502 -81.36357 17977 ft 376 kts 340°
2026-04-26 15:03 28.84003 -81.37255 18566 ft 378 kts 340°
2026-04-26 15:04 28.86520 -81.38158 19124 ft 380 kts 340°
2026-04-26 15:04 28.89028 -81.39057 19663 ft 382 kts 340°
2026-04-26 15:04 28.91576 -81.39972 20206 ft 385 kts 340°
2026-04-26 15:04 28.94146 -81.40888 20750 ft 388 kts 341°
2026-04-26 15:05 28.96822 -81.41471 21249 ft 394 kts 351°
2026-04-26 15:05 28.97713 -81.41567 21413 ft 395 kts 352°
2026-04-26 15:05 29.02318 -81.42065 22221 ft 399 kts 351°
2026-04-26 15:05 29.05091 -81.42373 22686 ft 401 kts 351°
2026-04-26 15:06 29.07841 -81.42681 23118 ft 404 kts 351°
2026-04-26 15:06 29.10653 -81.42993 23561 ft 406 kts 351°
2026-04-26 15:06 29.13481 -81.43286 23977 ft 408 kts 352°
2026-04-26 15:06 29.16337 -81.43561 24299 ft 413 kts 352°
2026-04-26 15:07 29.22105 -81.44082 25044 ft 417 kts 352°
2026-04-26 15:07 29.25010 -81.44347 25429 ft 418 kts 352°
2026-04-26 15:07 29.27879 -81.44614 25817 ft 420 kts 352°
2026-04-26 15:08 29.30798 -81.44888 26179 ft 421 kts 352°
2026-04-26 15:08 29.33721 -81.45168 26540 ft 422 kts 352°
2026-04-26 15:08 29.36658 -81.45453 26899 ft 423 kts 352°
2026-04-26 15:08 29.39594 -81.45739 27242 ft 424 kts 352°
2026-04-26 15:09 29.42544 -81.46024 27592 ft 425 kts 352°
2026-04-26 15:09 29.45493 -81.46307 27925 ft 426 kts 352°
2026-04-26 15:09 29.48413 -81.46584 28237 ft 426 kts 352°
2026-04-26 15:09 29.51371 -81.46864 28545 ft 427 kts 352°
2026-04-26 15:10 29.54338 -81.47144 28828 ft 428 kts 352°
2026-04-26 15:10 29.55341 -81.47239 28927 ft 428 kts 352°
2026-04-26 15:10 29.59281 -81.47613 29300 ft 429 kts 352°
2026-04-26 15:10 29.62259 -81.47891 29572 ft 429 kts 352°
2026-04-26 15:11 29.65236 -81.48162 29818 ft 430 kts 352°
2026-04-26 15:11 29.68237 -81.48429 30070 ft 430 kts 352°
2026-04-26 15:11 29.71222 -81.48693 30347 ft 429 kts 352°
2026-04-26 15:11 29.74158 -81.48955 30669 ft 427 kts 352°
2026-04-26 15:12 29.77118 -81.49223 30979 ft 426 kts 352°
2026-04-26 15:12 29.80069 -81.49491 31289 ft 424 kts 352°
2026-04-26 15:12 29.83004 -81.49758 31587 ft 422 kts 351°
2026-04-26 15:12 29.85927 -81.50026 31873 ft 421 kts 351°
2026-04-26 15:13 29.88833 -81.50389 32159 ft 417 kts 345°
2026-04-26 15:13 29.91621 -81.51225 32446 ft 412 kts 339°
2026-04-26 15:13 29.94356 -81.52207 32747 ft 410 kts 339°
2026-04-26 15:13 29.97041 -81.53168 33036 ft 408 kts 339°
2026-04-26 15:14 29.99754 -81.54139 33324 ft 406 kts 339°
2026-04-26 15:14 30.02452 -81.55105 33618 ft 405 kts 338°
2026-04-26 15:14 30.05132 -81.56065 33929 ft 402 kts 338°
2026-04-26 15:14 30.07798 -81.57022 34232 ft 400 kts 338°
2026-04-26 15:15 30.10457 -81.57975 34515 ft 399 kts 338°
2026-04-26 15:15 30.13104 -81.58922 34750 ft 398 kts 338°
2026-04-26 15:15 30.15748 -81.59868 34967 ft 397 kts 338°
2026-04-26 15:15 30.18393 -81.60819 35182 ft 397 kts 338°
2026-04-26 15:16 30.21029 -81.61765 35389 ft 397 kts 338°
2026-04-26 15:16 30.23636 -81.62700 35572 ft 397 kts 338°
2026-04-26 15:16 30.26277 -81.63647 35766 ft 396 kts 338°
2026-04-26 15:16 30.28915 -81.64594 35929 ft 397 kts 339°
2026-04-26 15:17 30.33309 -81.66169 35972 ft 398 kts 339°
2026-04-26 15:17 30.39467 -81.68381 35970 ft 397 kts 338°
2026-04-26 15:18 30.44754 -81.70290 35962 ft 398 kts 339°
2026-04-26 15:18 30.50040 -81.72198 35962 ft 397 kts 338°
2026-04-26 15:19 30.55331 -81.74117 35962 ft 397 kts 338°
2026-04-26 15:19 30.60619 -81.76030 35963 ft 398 kts 338°
2026-04-26 15:20 30.66035 -81.77395 35965 ft 402 kts 345°
2026-04-26 15:20 30.71571 -81.78489 35964 ft 403 kts 345°
2026-04-26 15:21 30.77110 -81.79585 35965 ft 403 kts 345°
2026-04-26 15:21 30.82613 -81.80692 35963 ft 404 kts 345°
2026-04-26 15:22 30.88160 -81.81813 35965 ft 404 kts 345°
2026-04-26 15:22 30.93712 -81.82927 35966 ft 404 kts 345°
2026-04-26 15:23 30.99231 -81.84032 35972 ft 405 kts 345°
2026-04-26 15:23 31.04780 -81.85150 35977 ft 404 kts 345°
2026-04-26 15:24 31.10341 -81.86276 35977 ft 405 kts 345°
2026-04-26 15:24 31.15056 -81.87222 35980 ft 405 kts 345°
2026-04-26 15:25 31.19681 -81.88151 35982 ft 405 kts 345°
2026-04-26 15:25 31.26142 -81.89463 35989 ft 405 kts 345°
2026-04-26 15:26 31.31707 -81.90595 35991 ft 406 kts 345°
2026-04-26 15:26 31.37267 -81.91723 35984 ft 405 kts 344°
2026-04-26 15:27 31.42793 -81.92841 35992 ft 405 kts 345°
2026-04-26 15:27 31.48363 -81.93966 35996 ft 405 kts 345°
2026-04-26 15:28 31.53922 -81.95094 35996 ft 406 kts 344°
2026-04-26 15:28 31.59502 -81.96231 35997 ft 406 kts 344°
2026-04-26 15:29 31.65040 -81.97363 36004 ft 406 kts 344°
2026-04-26 15:30 31.76187 -81.99649 35998 ft 406 kts 344°
2026-04-26 15:30 31.81719 -82.00782 35995 ft 406 kts 344°
2026-04-26 15:31 31.90172 -82.01935 35993 ft 412 kts 352°
2026-04-26 15:32 31.97817 -82.02175 35988 ft 412 kts 352°
2026-04-26 15:32 32.04479 -82.02404 35985 ft 411 kts 352°
2026-04-26 15:33 32.10209 -82.02603 35986 ft 412 kts 351°
2026-04-26 15:33 32.15942 -82.02802 35984 ft 412 kts 352°
2026-04-26 15:34 32.21649 -82.03001 35992 ft 412 kts 352°
2026-04-26 15:34 32.27389 -82.03207 35983 ft 412 kts 352°
2026-04-26 15:35 32.33133 -82.03400 35982 ft 412 kts 352°
2026-04-26 15:35 32.38877 -82.03594 35980 ft 412 kts 351°
2026-04-26 15:36 32.44582 -82.03798 35982 ft 412 kts 352°
2026-04-26 15:36 32.50312 -82.04158 35985 ft 410 kts 349°
2026-04-26 15:37 32.55992 -82.04765 35991 ft 410 kts 348°
2026-04-26 15:37 32.61674 -82.05395 35991 ft 409 kts 348°
2026-04-26 15:38 32.67336 -82.05971 35983 ft 410 kts 348°
2026-04-26 15:38 32.73038 -82.06525 35981 ft 410 kts 348°
2026-04-26 15:39 32.78737 -82.07076 35979 ft 411 kts 348°
2026-04-26 15:39 32.83475 -82.07538 35984 ft 411 kts 348°
2026-04-26 15:40 32.90110 -82.08198 35985 ft 411 kts 348°
2026-04-26 15:40 32.95823 -82.08764 35990 ft 411 kts 348°
2026-04-26 15:41 33.01532 -82.09325 35993 ft 411 kts 348°
2026-04-26 15:41 33.07243 -82.09880 35993 ft 412 kts 348°
2026-04-26 15:42 33.12930 -82.10441 35994 ft 412 kts 348°
2026-04-26 15:42 33.18659 -82.11017 35996 ft 413 kts 348°
2026-04-26 15:43 33.24395 -82.11590 35997 ft 413 kts 348°
2026-04-26 15:44 33.32962 -82.12439 35999 ft 413 kts 348°
2026-04-26 15:44 33.41571 -82.13287 36006 ft 413 kts 348°
2026-04-26 15:45 33.50183 -82.14153 36007 ft 414 kts 348°
2026-04-26 15:46 33.58763 -82.15002 36012 ft 414 kts 348°
2026-04-26 15:46 33.63546 -82.15480 36017 ft 414 kts 348°
2026-04-26 15:47 33.73177 -82.15798 36021 ft 427 kts
2026-04-26 15:48 33.79071 -82.14761 36024 ft 428 kts
2026-04-26 15:48 33.84964 -82.13724 36027 ft 428 kts
2026-04-26 15:49 33.90839 -82.12689 36028 ft 428 kts
2026-04-26 15:49 33.96740 -82.11655 36031 ft 428 kts
2026-04-26 15:50 34.02645 -82.10616 36033 ft 428 kts
2026-04-26 15:50 34.08550 -82.09575 36031 ft 428 kts
2026-04-26 15:51 34.14423 -82.08545 36033 ft 428 kts
2026-04-26 15:51 34.20329 -82.07501 36034 ft 429 kts
2026-04-26 15:52 34.26243 -82.06458 36036 ft 429 kts
2026-04-26 15:52 34.32150 -82.05406 36035 ft 429 kts
2026-04-26 15:53 34.38056 -82.04358 36034 ft 429 kts
2026-04-26 15:53 34.43963 -82.03320 36032 ft 428 kts
2026-04-26 15:54 34.49833 -82.02274 36028 ft 429 kts
2026-04-26 15:54 34.55747 -82.01215 36024 ft 429 kts
2026-04-26 15:55 34.61669 -82.00166 36023 ft 429 kts
2026-04-26 15:55 34.67584 -81.99114 36016 ft 430 kts
2026-04-26 15:56 34.73492 -81.98059 36009 ft 432 kts
2026-04-26 15:56 34.78458 -81.97171 36009 ft 433 kts
2026-04-26 15:57 34.85410 -81.95919 36012 ft 434 kts
2026-04-26 15:57 34.90396 -81.95022 36012 ft 435 kts
2026-04-26 15:58 34.96394 -81.93942 36012 ft 436 kts
2026-04-26 15:58 35.02400 -81.92879 36013 ft 435 kts 360°
2026-04-26 15:59 35.08391 -81.92829 36014 ft 430 kts 353°
2026-04-26 15:59 35.14391 -81.92984 36014 ft 431 kts 353°
2026-04-26 16:00 35.20357 -81.93129 36018 ft 431 kts 353°
2026-04-26 16:00 35.26369 -81.93283 36021 ft 432 kts 353°
2026-04-26 16:01 35.32384 -81.93436 36029 ft 433 kts 354°
2026-04-26 16:01 35.38411 -81.93595 36043 ft 433 kts 354°
2026-04-26 16:02 35.44449 -81.93749 36050 ft 434 kts 354°
2026-04-26 16:02 35.50514 -81.93904 36056 ft 435 kts 354°
2026-04-26 16:03 35.56533 -81.94060 36060 ft 435 kts 354°
2026-04-26 16:03 35.62593 -81.94210 36055 ft 435 kts 354°
2026-04-26 16:04 35.68657 -81.94367 36057 ft 436 kts 354°
2026-04-26 16:04 35.74734 -81.94521 36062 ft 436 kts 354°
2026-04-26 16:05 35.80763 -81.94677 36066 ft 436 kts 354°
2026-04-26 16:05 35.86838 -81.94832 36073 ft 436 kts 354°
2026-04-26 16:06 35.92919 -81.94992 36073 ft 436 kts 354°
2026-04-26 16:06 35.98951 -81.95149 36079 ft 436 kts 354°
2026-04-26 16:07 36.05031 -81.95308 36083 ft 436 kts 354°
2026-04-26 16:07 36.11108 -81.95467 36085 ft 436 kts 354°
2026-04-26 16:08 36.17182 -81.95625 36087 ft 436 kts 354°
2026-04-26 16:08 36.23222 -81.95785 36087 ft 436 kts 354°
2026-04-26 16:09 36.29291 -81.95943 36084 ft 436 kts 354°
2026-04-26 16:09 36.35360 -81.96101 36079 ft 436 kts 354°
2026-04-26 16:10 36.41443 -81.96268 36077 ft 437 kts 354°
2026-04-26 16:10 36.47522 -81.96431 36075 ft 437 kts 354°
2026-04-26 16:11 36.53569 -81.96582 36073 ft 437 kts 355°
2026-04-26 16:11 36.59656 -81.96738 36072 ft 437 kts 354°
2026-04-26 16:12 36.65750 -81.96899 36071 ft 438 kts 355°
2026-04-26 16:12 36.74897 -81.97151 36073 ft 438 kts 355°
2026-04-26 16:13 36.80968 -81.97317 36074 ft 438 kts 355°
2026-04-26 16:13 36.87067 -81.97478 36077 ft 438 kts 355°
2026-04-26 16:14 36.93173 -81.97637 36081 ft 438 kts 355°
2026-04-26 16:15 37.02344 -81.97874 36088 ft 440 kts 355°
2026-04-26 16:15 37.08469 -81.98051 36095 ft 439 kts 355°
2026-04-26 16:16 37.17609 -81.98306 36099 ft 439 kts 355°
2026-04-26 16:16 37.23727 -81.98462 36102 ft 439 kts 355°
2026-04-26 16:17 37.29810 -81.98617 36108 ft 439 kts 355°
2026-04-26 16:17 37.35922 -81.98777 36110 ft 439 kts 356°
2026-04-26 16:18 37.45093 -81.99030 36118 ft 439 kts 355°
2026-04-26 16:19 37.54261 -81.99272 36114 ft 439 kts 356°
2026-04-26 16:20 37.63422 -81.99531 36120 ft 439 kts 356°
2026-04-26 16:20 37.72550 -81.99779 36124 ft 439 kts 356°
2026-04-26 16:21 37.78659 -81.99941 36124 ft 439 kts 356°
2026-04-26 16:21 37.84767 -82.00109 36127 ft 438 kts 356°
2026-04-26 16:22 37.90877 -82.00282 36129 ft 438 kts 356°
2026-04-26 16:22 37.96925 -82.00446 36128 ft 437 kts 356°
2026-04-26 16:23 38.03019 -82.00607 36119 ft 437 kts 356°
2026-04-26 16:23 38.09108 -82.00771 36120 ft 437 kts 356°
2026-04-26 16:24 38.15143 -82.00942 36115 ft 437 kts 356°
2026-04-26 16:24 38.21225 -82.01117 36123 ft 437 kts 356°
2026-04-26 16:25 38.27305 -82.01281 36114 ft 437 kts 356°
2026-04-26 16:25 38.33383 -82.01440 36119 ft 436 kts 356°
2026-04-26 16:26 38.38437 -82.01573 36121 ft 437 kts 356°
2026-04-26 16:26 38.45510 -82.01778 36123 ft 437 kts 356°
2026-04-26 16:27 38.51587 -82.01955 36124 ft 437 kts 356°
2026-04-26 16:27 38.57672 -82.02123 36134 ft 437 kts 356°
2026-04-26 16:28 38.63751 -82.02297 36135 ft 436 kts 356°
2026-04-26 16:28 38.69795 -82.02468 36146 ft 436 kts 356°
2026-04-26 16:29 38.75872 -82.02704 36147 ft 435 kts 351°
2026-04-26 16:29 38.81870 -82.03627 36151 ft 434 kts 351°
2026-04-26 16:30 38.87830 -82.04560 36154 ft 434 kts 350°
2026-04-26 16:30 38.93829 -82.05497 36157 ft 434 kts 351°
2026-04-26 16:31 38.99834 -82.06453 36162 ft 433 kts 350°
2026-04-26 16:31 39.05784 -82.07396 36169 ft 433 kts 350°
2026-04-26 16:32 39.10771 -82.08188 36174 ft 433 kts 350°
2026-04-26 16:32 39.17765 -82.09300 36177 ft 433 kts 351°
2026-04-26 16:33 39.23707 -82.10232 36173 ft 432 kts 351°
2026-04-26 16:33 39.29681 -82.11181 36173 ft 432 kts 350°
2026-04-26 16:34 39.35664 -82.12137 36177 ft 432 kts 350°
2026-04-26 16:34 39.41608 -82.13093 36178 ft 432 kts 350°
2026-04-26 16:35 39.47573 -82.14047 36182 ft 431 kts 350°
2026-04-26 16:35 39.53538 -82.15006 36180 ft 431 kts 350°
2026-04-26 16:36 39.59459 -82.15966 36184 ft 431 kts 350°
2026-04-26 16:36 39.65441 -82.16928 36178 ft 432 kts 351°
2026-04-26 16:37 39.71410 -82.17877 36187 ft 431 kts 351°
2026-04-26 16:37 39.76361 -82.18665 36187 ft 431 kts 350°
2026-04-26 16:38 39.83285 -82.19787 36194 ft 431 kts 350°
2026-04-26 16:38 39.89243 -82.20768 36192 ft 431 kts 350°
2026-04-26 16:39 39.95206 -82.21739 36194 ft 431 kts 350°
2026-04-26 16:39 40.01165 -82.22696 36195 ft 431 kts 350°
2026-04-26 16:40 40.07087 -82.23657 36195 ft 431 kts 350°
2026-04-26 16:40 40.13047 -82.24635 36198 ft 431 kts 350°
2026-04-26 16:41 40.19000 -82.25609 36200 ft 431 kts 350°
2026-04-26 16:41 40.24952 -82.26576 36201 ft 431 kts 350°
2026-04-26 16:42 40.30865 -82.27540 36203 ft 430 kts 350°
2026-04-26 16:42 40.36812 -82.28523 36203 ft 430 kts 350°
2026-04-26 16:43 40.42755 -82.29509 36203 ft 430 kts 350°
2026-04-26 16:43 40.48689 -82.30527 36201 ft 428 kts 346°
2026-04-26 16:44 40.54353 -82.32689 36199 ft 426 kts 340°
2026-04-26 16:44 40.59062 -82.34657 36197 ft 426 kts 340°
2026-04-26 16:45 40.64717 -82.37014 36197 ft 426 kts 340°
2026-04-26 16:45 40.70363 -82.39363 36188 ft 425 kts 340°
2026-04-26 16:46 40.76006 -82.41736 36193 ft 425 kts 340°
2026-04-26 16:46 40.81609 -82.44091 36190 ft 425 kts 340°
2026-04-26 16:47 40.87248 -82.46457 36188 ft 425 kts 340°
2026-04-26 16:47 40.92885 -82.48842 36092 ft 424 kts 340°
2026-04-26 16:48 40.95721 -82.50043 35204 ft 427 kts 340°
2026-04-26 16:48 40.98544 -82.51233 33934 ft 426 kts 340°
2026-04-26 16:48 41.01336 -82.52407 32638 ft 427 kts 341°
2026-04-26 16:48 41.04172 -82.53603 31180 ft 428 kts 341°
2026-04-26 16:49 41.07022 -82.54810 29763 ft 429 kts 341°
2026-04-26 16:49 41.09852 -82.56024 28729 ft 420 kts 341°
2026-04-26 16:49 41.12579 -82.57220 27939 ft 407 kts 340°
2026-04-26 16:49 41.15239 -82.58405 26983 ft 400 kts 340°
2026-04-26 16:50 41.17825 -82.59565 25990 ft 394 kts 340°
2026-04-26 16:50 41.20419 -82.60731 24970 ft 390 kts 340°
2026-04-26 16:50 41.22977 -82.61880 23976 ft 386 kts 340°
2026-04-26 16:50 41.25509 -82.63015 23000 ft 382 kts 340°
2026-04-26 16:51 41.28018 -82.64135 22086 ft 377 kts 339°
2026-04-26 16:51 41.30402 -82.65549 21313 ft 374 kts 329°
2026-04-26 16:51 41.32600 -82.67264 20923 ft 368 kts 329°
2026-04-26 16:51 41.34820 -82.68973 20451 ft 365 kts 329°
2026-04-26 16:52 41.37017 -82.70650 19927 ft 364 kts 329°
2026-04-26 16:52 41.38467 -82.71756 19664 ft 360 kts 329°
2026-04-26 16:52 41.41371 -82.73975 19026 ft 356 kts 329°
2026-04-26 16:52 41.43520 -82.75623 18544 ft 354 kts 329°
2026-04-26 16:53 41.45633 -82.77252 18131 ft 349 kts 329°
2026-04-26 16:53 41.47731 -82.78876 17626 ft 348 kts 329°
2026-04-26 16:53 41.49794 -82.80475 17160 ft 346 kts 329°
2026-04-26 16:53 41.51872 -82.82082 16677 ft 344 kts 329°
2026-04-26 16:54 41.53938 -82.83682 16211 ft 342 kts 330°
2026-04-26 16:54 41.55998 -82.85276 15746 ft 340 kts 330°
2026-04-26 16:54 41.58041 -82.86857 15285 ft 338 kts 330°
2026-04-26 16:54 41.60072 -82.88430 14810 ft 336 kts 330°
2026-04-26 16:55 41.62092 -82.89997 14343 ft 335 kts 330°
2026-04-26 16:55 41.64092 -82.91555 14049 ft 328 kts 330°
2026-04-26 16:55 41.65982 -82.93029 13802 ft 309 kts 330°
2026-04-26 16:55 41.67796 -82.94548 13482 ft 303 kts 324°
2026-04-26 16:56 41.71134 -82.97834 12894 ft 295 kts 325°
2026-04-26 16:56 41.72786 -82.99446 12515 ft 293 kts 325°
2026-04-26 16:56 41.74410 -83.01035 12143 ft 292 kts 325°
2026-04-26 16:57 41.76046 -83.02641 11765 ft 291 kts 325°
2026-04-26 16:57 41.77683 -83.04244 11382 ft 290 kts 325°
2026-04-26 16:57 41.80710 -83.07796 10563 ft 292 kts 307°
2026-04-26 16:58 41.81638 -83.10216 10155 ft 294 kts 290°
2026-04-26 16:58 41.81955 -83.11986 9873 ft 296 kts 279°
2026-04-26 16:58 41.82497 -83.18381 8891 ft 296 kts 278°
2026-04-26 16:59 41.82731 -83.21127 8447 ft 296 kts 278°
2026-04-26 16:59 41.83190 -83.26559 7710 ft 290 kts 278°
2026-04-26 17:00 41.83628 -83.31819 7316 ft 271 kts 278°
2026-04-26 17:00 41.84028 -83.36628 7094 ft 247 kts 278°
2026-04-26 17:00 41.84211 -83.38877 6989 ft 242 kts 280°
2026-04-26 17:01 41.84798 -83.40932 7002 ft 236 kts 311°
2026-04-26 17:01 41.86029 -83.42330 6910 ft 230 kts 337°
2026-04-26 17:01 41.87512 -83.43064 6544 ft 227 kts 346°
2026-04-26 17:01 41.89031 -83.43634 6186 ft 227 kts 347°
2026-04-26 17:02 41.90552 -83.44184 5865 ft 226 kts 348°
2026-04-26 17:02 41.92064 -83.44731 5544 ft 224 kts 348°
2026-04-26 17:02 41.93570 -83.45279 5215 ft 223 kts 348°
2026-04-26 17:02 41.95051 -83.45798 4885 ft 222 kts 351°
2026-04-26 17:03 41.96561 -83.46199 4564 ft 220 kts 352°
2026-04-26 17:03 41.98063 -83.46569 4233 ft 219 kts 353°
2026-04-26 17:03 41.99556 -83.46934 4020 ft 217 kts 353°
2026-04-26 17:03 42.01044 -83.47298 3997 ft 216 kts 353°
2026-04-26 17:04 42.02477 -83.47386 3994 ft 197 kts 13°
2026-04-26 17:04 42.03739 -83.46795 4004 ft 191 kts 31°
2026-04-26 17:04 42.04900 -83.45947 3850 ft 186 kts 32°
2026-04-26 17:04 42.06000 -83.45133 3627 ft 180 kts 31°
2026-04-26 17:05 42.07088 -83.44339 3411 ft 175 kts 31°
2026-04-26 17:05 42.08149 -83.43563 3181 ft 173 kts 32°
2026-04-26 17:05 42.09199 -83.42792 2940 ft 171 kts 31°
2026-04-26 17:05 42.10239 -83.42030 2745 ft 168 kts 31°
2026-04-26 17:06 42.11250 -83.41291 2467 ft 161 kts 31°
2026-04-26 17:06 42.12171 -83.40617 2351 ft 142 kts 31°
2026-04-26 17:06 42.13002 -83.40007 2115 ft 134 kts 31°
2026-04-26 17:06 42.13812 -83.39407 1951 ft 131 kts 30°
2026-04-26 17:07 42.14607 -83.38819 1773 ft 130 kts 30°
2026-04-26 17:07 42.15398 -83.38242 1610 ft 129 kts 30°
2026-04-26 17:07 42.16184 -83.37666 1426 ft 129 kts 30°
2026-04-26 17:07 42.16971 -83.37089 1267 ft 129 kts 30°
2026-04-26 17:08 42.17759 -83.36510 1090 ft 129 kts 30°
2026-04-26 17:08 42.18545 -83.35927 918 ft 129 kts 31°
2026-04-26 17:08 42.19333 -83.35352 754 ft 130 kts 30°
2026-04-26 17:08 42.20100 -83.34783 647 ft 113 kts 30°
2026-04-26 17:09 42.20650 -83.34378 646 ft 65 kts 28°
2026-04-26 17:09 42.20849 -83.34233 646 ft 31 kts 24°
2026-04-26 17:09 42.21062 -83.34204 646 ft 12 kts 357°
2026-04-26 17:09 42.21098 -83.34281 647 ft 10 kts 262°
2026-04-26 17:10 42.21057 -83.34337 647 ft 8 kts 210°
2026-04-26 17:10 42.21023 -83.34383 647 ft 6 kts 258°
2026-04-26 17:10 42.21049 -83.34451 647 ft 12 kts 298°
2026-04-26 17:10 42.21086 -83.34546 647 ft 11 kts 300°
2026-04-26 17:11 42.21124 -83.34635 647 ft 12 kts 299°
2026-04-26 17:11 42.21165 -83.34736 645 ft 13 kts 299°
2026-04-26 17:11 42.21209 -83.34841 643 ft 13 kts 299°
2026-04-26 17:11 42.21254 -83.34922 645 ft 9 kts 333°
2026-04-26 17:12 42.21388 -83.34993 648 ft 11 kts 328°
2026-04-26 17:12 42.21467 -83.35059 646 ft 14 kts 328°
2026-04-26 17:13 42.21552 -83.35284 646 ft 16 kts 270°
2026-04-26 17:13 42.21548 -83.35426 646 ft 13 kts 268°
2026-04-26 17:13 42.21414 -83.35570 646 ft 14 kts 208°
2026-04-26 17:14 42.21350 -83.35586 646 ft 8 kts 131°
2026-04-26 17:14 42.21320 -83.35509 646 ft 0 kts 118°